FW8602 Weather Reports


Display with metric or nautical units.
time (UTC)temp
F
wind
direction
speed
MPH
gust
MPH
rain 1hr
in
rain 24hr
in
rain mn
in
humidity
%
barometer
mb
20260510044638 47 0 1.0 8.0 0.00 0.39 0.00 95 1011.8
20260510044058 47 0 1.0 8.0 0.00 0.39 0.00 95 1011.9
20260510043558 46 352 0.0 4.0 0.00 0.39 0.00 95 1011.7
20260510043058 46 0 0.0 0.0 0.00 0.39 0.00 95 1011.6
20260510042602 46 0 0.0 0.0 0.00 0.39 0.00 95 1011.7
20260510042058 47 0 0.0 0.0 0.00 0.39 0.00 95 1011.5
20260510041601 47 0 0.0 0.0 0.00 0.39 0.00 95 1011.4
20260510041059 47 0 0.0 0.0 0.00 0.39 0.00 95 1011.1
20260510040558 47 0 0.0 0.0 0.00 0.39 0.00 95 1011.0
20260510040112 47 0 0.0 0.0 0.00 0.39 0.00 95 1011.0
20260510035558 47 0 0.0 0.0 0.00 0.40 0.39 95 1010.8
20260510035059 47 0 0.0 0.0 0.00 0.40 0.39 95 1010.5
20260510034602 47 0 0.0 0.0 0.00 0.40 0.39 95 1010.5
20260510034059 48 0 0.0 0.0 0.00 0.40 0.39 95 1010.4
20260510033558 48 0 0.0 0.0 0.00 0.40 0.39 95 1010.4
20260510033100 48 0 0.0 0.0 0.00 0.40 0.39 95 1010.4
20260510032558 48 0 0.0 0.0 0.00 0.40 0.39 95 1010.4
20260510032058 48 0 0.0 0.0 0.00 0.40 0.39 95 1010.4
20260510031600 48 0 0.0 0.0 0.00 0.40 0.39 95 1010.5
20260510031103 48 0 0.0 0.0 0.00 0.40 0.39 95 1010.5
20260510030558 48 0 0.0 0.0 0.00 0.40 0.39 95 1010.5
20260510030058 48 0 0.0 0.0 0.00 0.40 0.39 95 1010.7
20260510025558 49 0 0.0 0.0 0.00 0.40 0.39 95 1010.7
20260510025058 49 0 0.0 1.0 0.00 0.40 0.39 95 1010.6
20260510024559 49 0 0.0 1.0 0.00 0.40 0.39 95 1010.5
20260510024058 49 318 0.0 1.0 0.00 0.40 0.39 95 1010.6
20260510023558 49 0 0.0 1.0 0.00 0.40 0.39 94 1010.6
20260510023104 49 0 0.0 1.0 0.00 0.40 0.39 94 1010.7
20260510022558 49 0 0.0 1.0 0.00 0.40 0.39 94 1010.6
20260510022100 49 0 0.0 0.0 0.00 0.40 0.39 94 1010.5
20260510021557 49 0 0.0 6.0 0.00 0.40 0.39 94 1010.6
20260510021058 49 0 0.0 6.0 0.00 0.40 0.39 94 1010.6
20260510020558 50 134 1.0 6.0 0.00 0.40 0.39 94 1010.6
20260510020100 50 0 1.0 7.0 0.00 0.40 0.39 94 1010.6
20260510015600 50 259 1.0 7.0 0.00 0.40 0.39 94 1010.6
20260510015058 50 0 1.0 7.0 0.00 0.40 0.39 94 1010.6
20260510014604 50 0 2.0 7.0 0.00 0.40 0.39 94 1010.6
20260510014058 51 257 1.0 8.0 0.00 0.40 0.39 94 1010.6
20260510013559 51 257 1.0 8.0 0.00 0.40 0.39 94 1010.6
20260510013058 51 0 2.0 8.0 0.00 0.40 0.39 94 1010.6
20260510012601 51 0 1.0 7.0 0.00 0.40 0.39 94 1010.4
20260510012058 51 288 1.0 7.0 0.00 0.40 0.39 94 1010.4
20260510011601 51 0 1.0 7.0 0.00 0.40 0.39 94 1010.4
20260510011057 51 288 1.0 4.0 0.00 0.40 0.39 94 1010.4
20260510010557 51 0 0.0 0.0 0.00 0.40 0.39 93 1010.2
20260510010137 52 0 0.0 4.0 0.00 0.40 0.39 93 1010.2
20260510005603 52 0 0.0 6.0 0.00 0.41 0.39 93 1010.0
20260510005058 52 0 1.0 6.0 0.00 0.41 0.39 93 1010.0
20260510004604 52 288 1.0 6.0 0.00 0.41 0.39 93 1010.0
20260510004101 53 0 1.0 4.0 0.00 0.41 0.39 92 1009.9
20260510003559 53 288 1.0 4.0 0.00 0.41 0.39 92 1009.9
20260510003101 53 0 0.0 0.0 0.00 0.41 0.39 92 1009.9
20260510002601 54 0 0.0 0.0 0.00 0.41 0.39 91 1009.7
20260510002058 54 0 0.0 1.0 0.00 0.41 0.39 91 1009.8
20260510001605 54 0 0.0 1.0 0.00 0.41 0.39 91 1009.7
20260510001101 55 0 0.0 1.0 0.00 0.41 0.39 90 1009.6
20260510000558 55 0 0.0 0.0 0.00 0.41 0.39 90 1009.7
20260509235558 56 0 0.0 0.0 0.00 0.41 0.39 90 1009.5
20260509235058 56 0 0.0 2.0 0.00 0.41 0.39 91 1009.6
20260509234643 57 0 0.0 2.0 0.00 0.41 0.39 91 1009.7
20260509234102 57 288 0.0 2.0 0.00 0.41 0.39 92 1009.5
20260509233604 57 0 0.0 2.0 0.00 0.41 0.39 93 1009.3
20260509233058 57 0 0.0 2.0 0.00 0.41 0.39 94 1009.3
20260509232559 57 0 0.0 2.0 0.00 0.41 0.39 94 1009.3
20260509232103 58 0 0.0 2.0 0.00 0.41 0.39 94 1009.3
20260509231602 58 0 0.0 2.0 0.00 0.41 0.39 94 1009.3
20260509231058 58 276 0.0 2.0 0.00 0.41 0.39 94 1009.4
20260509230558 59 0 0.0 3.0 0.00 0.41 0.39 94 1009.4
20260509225559 59 0 1.0 3.0 0.00 0.43 0.39 94 1009.4
20260509225058 60 282 0.0 1.0 0.00 0.43 0.39 95 1009.3
20260509224602 60 0 0.0 3.0 0.00 0.43 0.39 95 1009.3
20260509224058 60 0 0.0 3.0 0.00 0.43 0.39 95 1009.4
20260509223558 59 295 0.0 1.0 0.00 0.43 0.39 95 1009.3
20260509223102 60 0 0.0 2.0 0.00 0.43 0.39 95 1009.3
20260509222602 59 0 0.0 2.0 0.00 0.43 0.39 95 1009.2
20260509222102 59 0 0.0 4.0 0.00 0.43 0.39 95 1009.4
20260509221558 58 0 0.0 6.0 0.00 0.43 0.39 95 1009.4
20260509221058 58 0 0.0 6.0 0.00 0.43 0.39 95 1009.6
20260509220602 58 0 1.0 6.0 0.00 0.43 0.39 95 1009.6
20260509220110 58 58 2.0 6.0 0.00 0.43 0.39 95 1009.6
20260509215602 57 260 2.0 6.0 0.00 0.43 0.39 95 1009.7
20260509215101 58 264 1.0 6.0 0.00 0.43 0.39 95 1009.7
20260509214603 58 130 1.0 4.0 0.00 0.43 0.39 95 1009.7
20260509214058 58 188 0.0 4.0 0.00 0.43 0.39 95 1009.7
20260509213601 57 46 1.0 4.0 0.00 0.43 0.39 95 1009.5
20260509213102 57 289 1.0 4.0 0.00 0.43 0.39 95 1009.7
20260509212558 57 250 2.0 4.0 0.00 0.43 0.39 95 1009.8
20260509212101 57 45 0.0 3.0 0.00 0.43 0.39 96 1009.9
20260509211602 57 0 0.0 3.0 0.00 0.43 0.39 96 1010.0
20260509211058 57 294 0.0 3.0 0.00 0.43 0.39 96 1010.0
20260509210559 56 0 0.0 1.0 0.00 0.43 0.39 96 1010.1
20260509205558 56 0 0.0 3.0 0.00 0.44 0.39 96 1010.0
20260509205103 56 0 0.0 2.0 0.00 0.44 0.39 96 1010.1
20260509204607 56 350 0.0 2.0 0.01 0.44 0.39 96 1010.1
20260509204058 56 0 0.0 1.0 0.01 0.44 0.39 96 1010.2
20260509203558 55 0 0.0 1.0 0.01 0.44 0.39 96 1010.2
20260509203141 55 0 0.0 1.0 0.01 0.44 0.39 96 1010.3
20260509202604 54 0 0.0 1.0 0.01 0.44 0.39 96 1010.4
20260509202059 54 0 0.0 1.0 0.01 0.44 0.39 96 1010.5
20260509201622 54 282 0.0 2.0 0.01 0.44 0.39 96 1010.5
20260509201058 54 307 0.0 2.0 0.02 0.44 0.39 96 1010.4
20260509200558 55 0 0.0 4.0 0.02 0.44 0.39 96 1010.5
20260509200108 55 285 0.0 5.0 0.02 0.44 0.39 96 1010.5
20260509195559 55 296 1.0 5.0 0.02 0.44 0.39 96 1010.4
20260509195058 55 283 0.0 5.0 0.03 0.44 0.39 96 1010.5
20260509194601 55 229 0.0 4.0 0.03 0.43 0.38 96 1010.5
20260509194058 54 134 0.0 7.0 0.03 0.43 0.38 96 1010.5
20260509193559 53 213 2.0 7.0 0.04 0.43 0.38 96 1010.4
20260509193136 53 0 1.0 7.0 0.05 0.43 0.38 96 1010.6
20260509192600 53 280 1.0 6.0 0.07 0.43 0.38 96 1010.7
20260509192058 53 280 2.0 5.0 0.08 0.43 0.38 96 1010.7
20260509191615 53 297 0.0 103.0 0.09 0.43 0.38 96 1010.7
20260509191102 53 0 13.0 103.0 0.10 0.42 0.37 96 1010.7
20260509190557 53 283 0.0 173.0 0.11 0.42 0.37 96 1010.8
20260509190107 53 283 16.0 173.0 0.12 0.42 0.37 96 1010.8
20260509185558 53 285 14.0 152.0 0.13 0.42 0.37 96 1010.9
20260509185100 53 285 3.0 156.0 0.13 0.41 0.36 96 1011.0
20260509184601 53 264 35.0 156.0 0.13 0.40 0.35 96 1011.1
20260509184058 52 293 14.0 156.0 0.14 0.40 0.35 96 1011.2
20260509183602 52 0 23.0 139.0 0.13 0.39 0.34 96 1011.2
20260509183101 53 0 4.0 139.0 0.13 0.38 0.33 96 1011.2
20260509182601 53 0 0.0 2.0 0.12 0.36 0.31 96 1011.2
20260509182059 53 0 0.0 3.0 0.11 0.35 0.30 96 1011.4
20260509181602 52 0 0.0 3.0 0.11 0.34 0.29 96 1011.3
20260509181058 53 0 1.0 3.0 0.09 0.32 0.27 96 1011.3
20260509180600 53 0 0.0 1.0 0.08 0.31 0.26 96 1011.4
20260509180108 53 217 0.0 1.0 0.08 0.30 0.25 96 1011.4
20260509175558 53 0 0.0 5.0 0.08 0.29 0.24 96 1011.3
20260509175058 53 0 1.0 5.0 0.07 0.28 0.23 96 1011.3
20260509174614 53 0 0.0 1.0 0.07 0.27 0.22 96 1011.4
20260509174100 53 0 0.0 1.0 0.06 0.26 0.21 96 1011.3
20260509173600 53 250 0.0 1.0 0.07 0.26 0.21 96 1011.4
20260509173105 53 0 0.0 2.0 0.07 0.25 0.20 96 1011.3
20260509172600 53 0 0.0 2.0 0.06 0.24 0.19 96 1011.2
20260509172102 54 0 0.0 2.0 0.07 0.24 0.19 96 1011.2
20260509171559 54 0 0.0 1.0 0.06 0.23 0.18 96 1011.3
20260509171058 53 0 0.0 1.0 0.07 0.23 0.18 96 1011.2
20260509170559 53 0 0.0 1.0 0.08 0.23 0.18 96 1011.2
20260509170101 53 256 0.0 1.0 0.07 0.22 0.17 96 1011.1
20260509165559 53 0 0.0 1.0 0.06 0.21 0.16 96 1011.2
20260509165100 53 0 0.0 3.0 0.07 0.21 0.16 96 1011.3
20260509164609 53 0 0.0 3.0 0.06 0.20 0.15 96 1011.4
20260509164059 53 0 0.0 3.0 0.07 0.20 0.15 96 1011.5
20260509163601 53 0 0.0 4.0 0.06 0.19 0.14 96 1011.5
20260509163059 53 247 1.0 4.0 0.05 0.18 0.13 96 1011.5
20260509162558 53 0 0.0 5.0 0.05 0.18 0.13 96 1011.5
20260509162101 53 0 0.0 5.0 0.05 0.17 0.12 96 1011.6
20260509161602 53 0 0.0 4.0 0.05 0.17 0.12 96 1011.5
20260509161058 53 283 1.0 4.0 0.04 0.16 0.11 96 1011.5
20260509160559 54 0 0.0 4.0 0.04 0.15 0.10 96 1011.5
20260509160058 54 285 0.0 4.0 0.04 0.15 0.10 96 1011.7
20260509155559 54 134 0.0 2.0 0.04 0.15 0.10 96 1011.6
20260509155058 53 0 0.0 4.0 0.04 0.14 0.09 96 1011.6
20260509154559 53 0 0.0 5.0 0.04 0.14 0.09 96 1011.5
20260509154101 53 169 1.0 5.0 0.03 0.13 0.08 96 1011.6
20260509153558 53 0 2.0 5.0 0.03 0.13 0.08 96 1011.7
20260509153105 53 300 2.0 6.0 0.04 0.13 0.08 96 1011.6
20260509152558 54 0 1.0 6.0 0.04 0.13 0.08 96 1011.8
20260509152059 53 0 0.0 5.0 0.03 0.12 0.07 96 1011.6
20260509151609 53 0 0.0 5.0 0.03 0.12 0.07 96 1011.6
20260509151101 53 0 0.0 7.0 0.03 0.12 0.07 96 1011.6
20260509150558 53 0 0.0 7.0 0.02 0.11 0.06 96 1011.6
20260509150058 53 0 0.0 6.0 0.02 0.11 0.06 96 1011.7
20260509145601 53 0 0.0 4.0 0.02 0.11 0.06 96 1011.8
20260509145057 53 0 0.0 7.0 0.01 0.10 0.05 96 1011.8
20260509144605 53 0 0.0 7.0 0.01 0.10 0.05 96 1011.8
20260509144057 53 0 0.0 7.0 0.01 0.10 0.05 96 1011.6
20260509143559 53 0 0.0 4.0 0.01 0.10 0.05 96 1011.6
20260509143102 53 0 0.0 0.0 0.01 0.09 0.04 96 1011.5
20260509142558 53 0 0.0 4.0 0.01 0.09 0.04 96 1011.4
20260509142058 53 0 0.0 4.0 0.01 0.09 0.04 96 1011.4
20260509141603 53 0 0.0 4.0 0.01 0.09 0.04 96 1011.2
20260509141059 53 0 0.0 0.0 0.01 0.09 0.04 96 1011.3
20260509140558 52 0 0.0 0.0 0.01 0.09 0.04 96 1011.4
20260509140100 52 0 0.0 0.0 0.01 0.09 0.04 96 1011.4
20260509135558 52 0 0.0 0.0 0.01 0.10 0.04 96 1011.7
20260509135100 52 0 0.0 0.0 0.02 0.10 0.04 96 1011.5
20260509134601 52 0 0.0 0.0 0.02 0.10 0.04 96 1011.6
20260509134057 52 0 0.0 0.0 0.02 0.10 0.04 96 1011.4
20260509133558 52 0 0.0 0.0 0.02 0.10 0.04 96 1011.4
20260509133104 52 0 0.0 0.0 0.01 0.09 0.03 96 1011.4
20260509132604 51 0 0.0 1.0 0.01 0.09 0.03 96 1011.5
20260509132059 51 0 0.0 1.0 0.01 0.09 0.03 96 1011.4
20260509131602 51 0 0.0 1.0 0.01 0.09 0.03 96 1011.4
20260509131100 51 0 0.0 0.0 0.01 0.09 0.03 96 1011.5
20260509130558 51 0 0.0 0.0 0.01 0.09 0.03 96 1011.2
20260509130106 51 0 0.0 0.0 0.01 0.09 0.03 96 1011.3
20260509125559 51 0 0.0 0.0 0.01 0.09 0.03 96 1011.2
20260509125058 51 0 0.0 0.0 0.00 0.08 0.02 96 1011.2
20260509124601 51 0 0.0 1.0 0.00 0.08 0.02 96 1011.0
20260509124058 50 0 0.0 1.0 0.00 0.08 0.02 96 1011.1
20260509123558 50 0 0.0 1.0 0.00 0.08 0.02 96 1011.1
20260509123101 50 0 0.0 0.0 0.00 0.08 0.02 96 1011.1
20260509122558 50 0 0.0 1.0 0.00 0.08 0.02 96 1011.0
20260509122058 50 0 0.0 1.0 0.00 0.08 0.02 96 1011.1
20260509121558 50 0 0.0 1.0 0.00 0.08 0.02 96 1011.1
20260509121101 50 0 0.0 1.0 0.01 0.08 0.02 96 1011.1
20260509120559 50 0 0.0 2.0 0.01 0.08 0.02 96 1011.0
20260509115602 50 69 0.0 0.0 0.01 0.08 0.02 96 1011.0
20260509115058 49 0 0.0 1.0 0.01 0.08 0.02 96 1011.0
20260509114559 49 0 0.0 1.0 0.01 0.08 0.02 96 1011.0
20260509114059 49 0 0.0 2.0 0.01 0.08 0.02 96 1011.1
20260509113559 49 0 0.0 2.0 0.01 0.08 0.02 96 1011.1
20260509113114 49 82 0.0 1.0 0.01 0.08 0.02 96 1011.2
20260509112558 49 0 0.0 1.0 0.01 0.08 0.02 96 1011.2
20260509112059 49 0 0.0 1.0 0.01 0.08 0.02 96 1011.3
20260509111606 49 0 0.0 1.0 0.01 0.08 0.02 96 1011.5
20260509111058 49 0 0.0 1.0 0.00 0.07 0.01 96 1011.3
20260509110559 49 0 0.0 2.0 0.00 0.07 0.01 96 1011.3
20260509110059 49 0 0.0 2.0 0.00 0.07 0.01 96 1011.3
20260509105602 49 0 0.0 2.0 0.00 0.07 0.01 96 1011.4
20260509105058 49 0 0.0 2.0 0.00 0.07 0.01 96 1011.3
20260509104558 49 0 0.0 1.0 0.00 0.07 0.01 96 1011.4
20260509104057 49 0 0.0 1.0 0.00 0.07 0.01 96 1011.4
20260509103558 49 0 0.0 1.0 0.00 0.07 0.01 96 1011.5
20260509103105 49 0 0.0 1.0 0.00 0.07 0.01 96 1011.4
20260509102601 48 0 0.0 1.0 0.00 0.07 0.01 96 1011.4
20260509102058 48 0 0.0 0.0 0.00 0.07 0.01 96 1011.4
20260509101558 48 0 0.0 0.0 0.00 0.07 0.01 96 1011.5
20260509101058 48 0 0.0 0.0 0.00 0.07 0.01 96 1011.6
20260509100558 48 0 0.0 0.0 0.00 0.07 0.01 96 1011.5
20260509100100 48 0 0.0 0.0 0.00 0.07 0.01 96 1011.5
20260509095558 48 0 0.0 0.0 0.00 0.07 0.01 96 1011.5
20260509095059 48 0 0.0 0.0 0.00 0.07 0.01 96 1011.4
20260509094558 48 0 0.0 0.0 0.00 0.07 0.01 96 1011.5
20260509094058 48 0 0.0 0.0 0.00 0.07 0.01 96 1011.3
20260509093558 48 0 0.0 0.0 0.00 0.07 0.01 96 1011.4
20260509093100 48 0 0.0 0.0 0.00 0.07 0.01 96 1011.4
20260509092557 48 0 0.0 0.0 0.00 0.07 0.01 96 1011.4
20260509092058 48 0 0.0 0.0 0.00 0.07 0.01 96 1011.4
20260509091607 48 0 0.0 1.0 0.00 0.07 0.01 96 1011.5
20260509091058 48 0 0.0 2.0 0.00 0.07 0.01 96 1011.5
20260509090558 48 0 0.0 2.0 0.00 0.07 0.01 96 1011.3
20260509090059 48 0 0.0 2.0 0.00 0.07 0.01 96 1011.6
20260509085557 48 156 0.0 2.0 0.00 0.07 0.01 96 1011.8
20260509085100 48 133 0.0 3.0 0.00 0.07 0.01 96 1011.6
20260509084557 48 132 0.0 3.0 0.00 0.07 0.01 96 1011.8
20260509084058 48 182 0.0 1.0 0.00 0.07 0.01 96 1011.7
20260509083558 48 0 0.0 1.0 0.00 0.07 0.01 96 1011.9
20260509083057 48 0 0.0 0.0 0.00 0.07 0.01 96 1012.0
20260509082558 48 0 0.0 0.0 0.00 0.07 0.01 96 1012.0
20260509082100 48 0 0.0 0.0 0.00 0.07 0.01 96 1012.1
20260509081604 48 0 0.0 0.0 0.00 0.07 0.01 96 1012.1
20260509081058 48 0 0.0 1.0 0.01 0.07 0.01 96 1012.3
20260509080558 48 0 0.0 1.0 0.01 0.07 0.01 96 1012.3
20260509080110 48 0 0.0 1.0 0.01 0.07 0.01 96 1012.3
20260509075558 48 0 0.0 1.0 0.01 0.07 0.01 96 1012.3
20260509075058 48 0 0.0 1.0 0.01 0.07 0.01 96 1012.4
20260509074559 48 0 0.0 1.0 0.01 0.07 0.01 96 1012.4
20260509074100 48 0 0.0 1.0 0.01 0.07 0.01 96 1012.4
20260509073600 48 0 0.0 0.0 0.01 0.07 0.01 96 1012.5
20260509073058 48 0 0.0 1.0 0.01 0.07 0.01 96 1012.5
20260509072558 48 0 0.0 3.0 0.01 0.07 0.01 96 1012.4
20260509072058 48 148 1.0 3.0 0.01 0.07 0.01 96 1012.4
20260509071600 49 0 0.0 1.0 0.01 0.07 0.01 96 1012.4
20260509071058 49 0 0.0 0.0 0.00 0.06 0.00 96 1012.4
20260509070601 49 0 0.0 0.0 0.00 0.06 0.00 96 1012.7
20260509070105 48 0 0.0 0.0 0.00 0.06 0.00 96 1012.7
20260509065558 48 0 0.0 0.0 0.00 0.06 0.00 96 1012.7
20260509065058 48 0 0.0 0.0 0.00 0.06 0.00 96 1012.6
20260509064557 48 0 0.0 0.0 0.00 0.06 0.00 96 1012.5
20260509064058 48 0 0.0 0.0 0.00 0.06 0.00 96 1012.5
20260509063557 48 0 0.0 0.0 0.00 0.06 0.00 96 1012.5
20260509063059 48 0 0.0 0.0 0.00 0.06 0.00 96 1012.4
20260509062558 48 0 0.0 0.0 0.00 0.06 0.00 96 1012.5
20260509062059 48 0 0.0 0.0 0.00 0.06 0.00 96 1012.6
20260509061616 48 0 0.0 0.0 0.00 0.06 0.00 96 1012.8
20260509061100 48 0 0.0 0.0 0.00 0.06 0.00 96 1012.9
20260509060604 48 0 0.0 0.0 0.00 0.06 0.00 96 1012.9
20260509060142 48 0 0.0 0.0 0.00 0.06 0.00 96 1013.0
20260509055600 48 0 0.0 0.0 0.00 0.06 0.00 96 1013.1
20260509055100 48 0 0.0 0.0 0.00 0.06 0.00 96 1013.1
20260509054602 48 0 0.0 0.0 0.00 0.06 0.00 96 1013.3
20260509054058 48 0 0.0 0.0 0.00 0.06 0.00 96 1013.5
20260509053558 48 0 0.0 0.0 0.00 0.06 0.00 96 1013.6
20260509053058 48 0 0.0 0.0 0.00 0.06 0.00 96 1013.8
20260509052558 48 0 0.0 0.0 0.00 0.06 0.00 96 1013.8
20260509052057 48 0 0.0 0.0 0.00 0.06 0.00 96 1013.7
20260509051600 48 0 0.0 0.0 0.00 0.06 0.00 96 1013.5
20260509051059 48 0 0.0 0.0 0.00 0.06 0.00 96 1013.2
20260509050558 48 0 0.0 0.0 0.00 0.06 0.00 96 1013.1
20260509050136 48 0 0.0 0.0 0.00 0.06 0.00 96 1013.0
20260509045557 48 0 0.0 0.0 0.00 0.06 0.00 96 1013.0
20260509045058 48 0 0.0 0.0 0.00 0.06 0.00 96 1013.1